Погода в Шардже

Объединённые Арабские Эмираты     25°21′20″N   55°25′40″E
темп.,
°C
ветер,
м/с
пор.,
м/с
влажн.,
%
обл.,
%
осадки,
мм/ч
давл.,
гПа
погр.,
м
21 апреля, ср
ср2101:00+23зсз22720 0.0 100911
04:00+22в11770 0.0 100911
07:00+26ююв33500 0.0 101151
10:00+35юз22180 0.0 1012784
13:00+38зсз64160 0.0 10091566
16:00+35сз77230 0.0 1008450
19:00+27с33530 0.0 101020
22:00+25в12510 0.0 101011
22 апреля, чт
чт2201:00+24ссв23613 0.0 101011
04:00+24всв334812 0.0 101011
07:00+27ю573021 0.0 1012105
10:00+38ююз54104 0.0 1011761
13:00+39зсз861132 0.0 10101406
16:00+35сз88190 0.0 1009488
19:00+27ссв33570 0.0 100912
22:00+26всв224714 0.0 101011
23 апреля, пт
пт2301:00+25всв224189 0.0 100811
04:00+25всв22355 0.0 100811
07:00+28ююв442220 0.0 101044
10:00+37юз4494 0.0 1010934
13:00+37зсз87133 0.0 1008826
16:00+36зсз77151 0.0 1007603
19:00+27сз44550 0.0 100835
22:00+26всв33550 0.0 100916
24 апреля, сб
сб2401:00+26вюв33350 0.0 100813
04:00+25вюв22262 0.0 100711
07:00+29ююв33190 0.0 100838
10:00+37зюз4490 0.0 10091038
13:00+38зсз86115 0.0 10081190
16:00+35сз77190 0.0 1007571
19:00+27ссз44520 0.0 100723
22:00+26в34470 0.0 100919
25 апреля, вс
вс2501:00+27юв44300 0.0 100815
04:00+27юв33210 0.0 100811
07:00+30ю45140 0.0 100970
10:00+38ююз66100 0.0 10101090
13:00+38зсз88130 0.0 1009748
16:00+35сз78210 0.0 1008500
19:00+27с4551100 0.0 100841
22:00+27в3434100 0.0 100922